Location: Grantsboro
(35.1404°N, 76.8424°W)
Time: 17:43:16
(UTC+00:00)

ATLAS 2AS CENTAUR R/B - Pass Details

Date: 18 January 2020
Orbit: 929 x 1283 km, 63.7° (Epoch: 08 February)

Event Time Altitude Azimuth Distance (km) Brightness Sun altitude
Rises 11:24:02 0° 217° (SW) 4,139 5.6 -10.4°
Reaches altitude 10° 11:26:47 10° 220° (SW) 3,209 5.0 -9.9°
Maximum altitude 11:34:36 70° 303° (WNW) 1,354 3.1 -8.4°
Drops below altitude 10° 11:42:37 10° 27° (NNE) 3,279 5.3 -6.8°
Sets 11:45:27 0° 29° (NNE) 4,234 5.9 -6.3°
